Theta_e
282 283 283 282 282 282 282 282 282 283 284 283 283 285 284 282 281 281 279 278 278 278 278 277 276 276 276 276 276 275 275 275 276 277 276 275 274 273 273 272 270 270 270
281 281 281 280 280 280 279 279 280 280 280 279 279 279 279 279 278 278 278 277 277 276 276 276 275 276 275 274 274 274 274 273 273 274 273 273 273 272 271 269 269 269 268
280 280 280 280 279 279 278 278 278 277 278 278 278 277 277 277 277 276 276 275 275 275 275 275 274 275 274 273 273 273 272 273 272 272 272 272 271 270 268 268 268 268 268
279 279 279 279 279 278 278 278 278 277 276 277 277 277 276 276 276 276 275 274 273 272 273 274 274 274 273 273 272 272 271 271 271 271 271 270 269 268 267 267 267 267 267
279 279 279 278 278 278 278 277 277 277 277 276 276 275 275 275 274 274 273 273 272 271 271 272 272 273 274 273 272 271 270 270 270 270 269 268 267 266 266 266 267 267 266
278 278 277 277 277 277 277 277 277 277 277 277 277 276 276 276 275 273 273 272 271 270 270 270 271 272 272 272 271 270 270 270 270 268 267 267 266 266 266 266 266 266 266
276 276 276 276 276 275 276 276 276 276 276 276 276 276 276 276 275 274 272 271 270 269 269 270 270 271 272 271 269 268 267 268 269 268 267 266 265 266 266 266 266 266 266
275 275 275 275 275 276 276 275 275 275 275 275 276 276 276 276 275 274 272 270 269 269 269 270 270 270 272 272 269 267 267 267 268 267 266 266 266 267 267 266 266 265 264
273 274 274 275 274 274 274 274 274 275 275 275 275 275 275 276 275 273 272 271 270 269 268 268 270 270 271 271 269 266 266 267 267 266 265 266 266 266 266 266 264 263 263
273 274 274 275 275 274 274 274 273 274 273 274 273 273 274 274 275 274 273 271 269 268 267 267 268 270 270 270 268 266 266 268 266 264 265 266 266 266 266 264 263 262 262
274 274 274 274 274 274 274 274 274 274 273 272 272 272 273 273 274 274 273 270 269 268 267 266 267 269 269 268 267 267 268 267 264 264 264 264 265 265 264 264 263 262 262
275 275 275 275 275 275 275 274 273 273 273 273 272 271 271 272 272 272 272 271 270 268 267 266 266 268 267 267 265 267 266 264 263 262 261 261 262 263 264 264 264 263 262
275 275 274 274 274 274 274 274 274 273 272 270 270 271 271 271 271 271 271 270 270 268 267 266 266 266 265 265 265 265 264 264 263 261 260 261 261 262 262 262 262 262 262
273 273 274 274 274 274 274 273 273 272 272 271 270 270 270 271 272 272 271 270 270 268 268 266 265 265 265 265 265 264 263 262 261 261 260 261 261 261 261 262 262 262 262
273 273 272 272 273 273 273 273 273 273 273 271 270 270 270 270 272 273 273 272 271 269 267 265 266 264 263 262 262 262 262 262 261 261 260 260 260 260 261 262 261 261 261
272 272 272 272 272 272 272 272 272 272 272 272 271 271 270 271 272 272 272 272 270 267 265 264 264 262 261 261 261 261 262 262 262 260 260 259 260 260 260 261 261 262 262
273 272 272 272 271 271 271 271 271 270 270 269 269 270 270 270 271 271 271 270 267 266 265 264 263 262 261 261 260 259 259 261 260 260 259 259 259 259 260 261 261 262 263
272 272 272 272 271 271 271 271 270 270 270 270 269 268 268 269 269 269 268 268 269 267 265 264 262 261 261 260 260 259 259 259 259 259 258 259 259 259 260 261 262 263 263
272 272 272 271 271 271 271 271 271 271 271 270 270 270 269 269 269 269 268 267 267 266 265 264 263 261 261 260 260 260 259 259 259 258 258 258 259 260 261 261 262 263 264
272 272 272 271 271 271 271 271 271 271 271 271 270 269 269 269 269 268 268 266 266 265 264 263 262 261 261 260 260 260 260 259 259 259 259 259 260 260 261 262 263 264 264
272 272 272 271 270 271 271 271 272 271 271 271 270 268 268 267 267 266 266 266 265 265 264 262 262 261 261 261 261 260 260 259 260 259 259 259 260 261 262 263 263 264 265
272 272 272 271 271 271 272 271 271 271 271 270 270 269 268 267 267 266 266 266 265 265 264 262 262 261 261 261 261 261 260 260 261 260 259 260 261 261 262 263 264 265 267
272 272 271 272 271 271 271 271 270 270 270 270 269 269 268 267 267 266 266 265 265 264 264 263 262 262 262 262 263 262 262 264 264 262 260 260 261 262 262 264 267 271 271
271 271 271 272 271 271 270 270 270 270 270 269 269 269 268 267 267 266 266 265 265 265 265 264 263 262 263 263 265 266 266 266 266 262 263 260 261 263 267 270 270 271 271
271 271 270 270 270 270 270 270 270 270 269 269 269 269 268 268 267 267 266 265 265 264 265 264 263 263 264 265 266 267 267 267 267 265 263 265 268 270 270 270 271 271 271
271 270 270 270 270 270 270 270 270 270 269 269 269 269 268 268 267 267 266 265 265 265 265 264 263 264 265 266 267 267 267 267 264 266 269 270 270 270 270 271 271 272 274
Wind_Speed
31 25 23 31 40 38 45 44 44 46 48 47 46 50 48 46 44 46 42 37 39 35 33 32 30 27 25 22 21 20 17 14 4 5 14 18 22 24 21 28 27 24 25
30 25 23 33 38 45 45 43 43 47 46 45 48 48 47 46 43 43 41 35 35 34 33 31 29 25 24 21 20 19 17 12 8 8 16 16 16 18 21 30 23 21 26
29 23 22 30 42 45 42 40 41 43 45 46 48 45 45 43 42 40 38 36 34 32 30 30 26 24 23 17 17 15 15 8 7 7 12 14 17 19 25 22 22 23 21
28 26 23 34 42 40 41 40 41 42 45 48 47 45 43 42 39 36 34 32 30 30 28 25 24 20 19 17 16 15 14 10 10 10 12 14 17 19 20 23 25 24 28
27 29 28 35 40 42 43 40 39 42 40 41 43 42 39 38 34 34 31 29 27 24 21 21 19 17 16 18 15 14 14 13 11 12 12 15 17 22 21 25 27 30 28
27 23 25 35 39 39 38 37 39 39 37 38 38 36 32 28 23 24 28 27 23 20 18 16 16 20 16 15 12 12 12 14 13 14 15 17 19 21 22 24 27 27 11
23 24 32 34 37 33 39 39 36 34 34 35 35 34 31 26 21 19 19 22 22 19 17 14 13 21 19 17 17 14 14 13 10 17 17 18 22 24 26 28 27 27 29
28 29 24 30 35 39 38 35 34 33 33 31 31 29 29 24 19 16 15 16 14 17 19 20 21 21 20 20 20 19 16 13 10 19 20 23 23 26 25 26 29 34 35
24 26 30 35 36 34 34 32 31 33 32 31 30 30 28 25 19 16 13 18 17 18 17 19 18 16 19 19 19 19 16 16 16 23 24 25 24 24 24 26 29 25 29
24 30 31 32 32 31 30 28 26 29 27 26 26 25 25 22 20 21 18 14 13 12 13 15 15 17 16 16 17 21 18 21 28 31 29 29 30 31 31 28 29 27 28
27 29 29 28 28 26 26 24 24 22 21 22 22 21 20 19 21 16 14 15 17 15 13 17 18 18 19 19 18 20 21 25 28 30 33 36 37 38 39 37 33 29 33
24 26 25 24 23 21 21 19 18 18 18 18 17 17 16 16 14 14 14 16 15 15 15 21 20 18 18 17 20 20 20 24 29 32 31 31 32 37 41 44 46 44 42
21 22 20 20 19 17 17 17 16 14 14 13 13 15 15 11 13 14 15 12 12 14 15 18 19 19 22 24 21 18 25 30 32 31 28 30 32 41 42 40 41 39 42
19 19 17 18 18 16 17 17 16 14 14 14 13 11 10 13 15 16 17 19 21 23 23 23 22 21 22 23 27 28 31 33 33 33 32 37 40 37 37 37 38 42 41
16 16 16 15 15 15 13 11 11 12 9 10 9 9 9 12 14 14 16 17 18 18 22 26 29 32 34 33 34 34 35 36 35 34 33 35 37 36 39 40 39 41 36
16 15 13 12 11 9 8 9 7 6 6 6 5 7 10 8 12 13 14 15 14 15 23 27 31 31 31 34 36 38 39 39 40 40 39 36 36 38 41 44 39 37 37
14 15 13 12 10 9 7 6 4 3 2 2 4 4 7 10 12 13 14 17 17 18 24 27 28 30 32 35 35 35 37 40 41 40 36 37 37 40 40 42 42 39 40
15 13 13 13 11 10 8 6 5 5 4 5 7 8 13 14 14 15 18 23 26 25 26 27 29 31 33 35 37 37 40 41 41 39 37 38 39 38 40 41 42 41 41
19 17 14 12 11 7 4 2 2 4 6 9 11 12 14 16 16 17 22 24 26 28 29 30 31 31 33 35 38 39 39 42 44 42 42 39 40 39 42 43 43 47 47
20 17 15 14 11 8 6 4 3 5 8 11 13 16 18 21 23 25 24 25 26 28 29 30 31 32 34 36 38 40 42 43 43 41 40 41 43 41 43 45 45 44 45
24 22 20 18 15 12 10 8 7 7 9 12 13 14 16 19 23 24 26 27 27 29 30 30 31 33 34 36 38 39 42 44 45 45 42 43 43 44 46 46 48 48 47
28 26 25 22 18 17 14 12 11 11 12 14 15 16 17 19 21 23 26 27 28 29 29 29 31 32 33 35 36 39 43 46 48 45 43 45 47 47 47 48 49 48 46
31 29 27 25 23 20 19 18 16 15 15 16 18 19 19 21 23 24 26 29 30 31 30 29 30 32 33 34 35 39 44 48 51 50 49 49 50 50 50 49 47 47 47
36 35 33 30 28 26 24 22 21 19 19 20 20 20 21 23 25 26 27 30 31 32 30 29 30 31 32 34 37 41 45 49 52 51 52 52 52 52 50 51 51 51 51
41 39 37 34 32 30 29 28 26 24 23 22 22 22 22 23 26 27 28 30 32 32 30 29 30 30 31 35 39 43 47 49 53 51 54 51 52 54 55 52 53 55 53
44 43 41 38 37 35 33 31 29 26 25 24 22 22 23 25 27 28 29 31 32 31 30 30 30 30 32 37 41 47 51 53 48 51 54 50 53 54 54 55 57 53 48
Wind_Direction
58 60 69 82 87 86 85 87 88 92 93 93 93 95 94 92 92 94 91 90 91 90 85 81 73 70 66 61 64 61 55 44 12 319 323 332 340 338 333 326 333 334 321
63 60 68 83 87 83 83 85 89 90 92 92 92 93 95 94 93 94 94 89 87 82 79 75 69 62 59 50 50 46 43 31 19 312 313 327 331 336 320 331 328 328 324
69 67 74 84 83 80 81 81 84 89 91 92 94 90 92 94 93 91 90 87 82 77 74 70 64 56 49 43 44 43 26 11 353 311 304 323 327 328 328 329 328 322 322
68 69 74 76 79 81 81 79 80 82 85 90 92 94 93 91 91 89 86 84 79 72 69 68 65 54 45 37 35 28 17 5 353 334 326 327 326 331 329 327 326 327 322
76 73 69 78 80 81 81 83 84 85 84 86 89 87 85 84 83 86 84 82 78 74 68 64 60 53 45 36 31 18 10 6 353 345 334 330 335 335 334 328 322 321 320
76 78 77 78 80 80 83 84 83 85 86 86 84 86 86 85 84 83 82 82 78 76 69 59 47 46 34 31 25 21 15 5 2 352 335 328 327 321 321 322 320 323 320
82 77 75 78 83 86 90 90 88 87 86 85 86 86 82 79 79 80 78 72 67 62 58 54 43 41 27 2 8 9 6 4 359 347 330 322 317 318 320 321 318 313 307
76 80 87 93 91 93 94 92 91 89 87 83 81 78 77 72 72 71 73 75 68 53 45 41 38 25 17 3 353 359 352 355 339 339 329 319 313 313 313 308 304 301 299
91 93 94 98 98 97 95 94 92 91 87 87 86 81 70 64 59 60 61 56 46 39 30 30 37 13 8 0 348 351 344 342 327 330 326 322 316 314 310 308 303 306 305
93 99 101 100 98 96 95 96 97 91 90 88 85 83 78 69 53 46 42 46 44 35 23 16 22 9 356 355 352 351 344 342 331 328 331 331 331 330 329 323 311 296 301
104 101 98 97 98 99 99 97 94 97 94 88 84 75 69 61 56 43 37 33 27 19 7 7 10 357 356 354 350 358 340 329 331 334 336 335 334 334 332 326 314 297 293
101 96 93 93 94 97 98 100 101 98 88 78 75 73 66 59 41 34 30 27 11 359 0 3 358 347 346 347 349 347 335 334 341 338 333 326 323 324 325 322 319 312 297
102 99 102 105 104 103 101 97 92 92 91 86 73 61 58 51 40 24 25 9 4 352 358 349 344 342 344 342 341 334 337 344 341 333 323 318 317 317 319 313 308 301 295
116 117 119 116 116 112 106 99 92 81 73 68 64 57 49 38 29 11 3 2 358 357 341 340 341 336 335 333 336 339 342 342 338 331 321 319 320 314 309 309 305 307 306
135 136 133 130 124 117 107 91 83 68 49 49 46 33 27 22 11 357 351 351 345 345 327 336 342 347 345 342 339 338 337 336 332 328 320 315 312 311 309 311 307 304 298
150 147 144 144 141 133 127 126 114 96 82 66 47 12 2 356 347 347 345 342 334 332 336 342 342 341 339 338 336 332 330 329 328 324 319 312 309 308 307 307 304 301 297
174 164 164 165 162 160 157 149 124 144 150 38 26 16 9 352 349 347 342 336 332 329 337 336 334 333 333 332 330 326 320 322 323 317 310 307 306 303 303 302 301 299 297
190 183 180 173 172 165 156 133 96 69 49 22 8 357 348 351 352 350 343 334 333 334 332 331 330 328 328 327 327 324 319 319 317 314 308 305 301 298 298 298 298 296 296
199 195 188 186 183 173 155 116 50 4 358 355 349 343 339 337 340 342 340 340 331 326 325 324 324 323 322 323 323 322 318 315 315 312 307 301 299 298 295 294 294 295 295
207 207 205 204 201 194 201 221 275 316 329 333 339 336 336 334 337 337 337 333 328 322 320 319 319 319 320 322 322 320 317 315 312 308 302 300 298 296 293 294 295 296 295
210 211 212 211 215 219 229 245 271 296 307 311 320 325 330 319 323 324 325 327 326 322 318 317 317 318 320 321 319 317 315 312 311 306 301 298 298 296 296 295 295 295 294
215 217 218 221 222 228 239 251 262 275 287 298 308 313 314 314 316 317 319 321 322 320 318 316 316 316 319 319 318 316 315 312 312 308 302 300 299 297 297 297 296 294 294
219 221 224 230 234 239 243 250 257 268 280 289 298 303 309 312 315 317 317 319 320 321 321 318 317 318 323 322 320 319 316 318 318 313 305 300 297 297 298 296 296 305 306
223 224 227 231 234 238 245 252 259 265 272 281 289 296 302 309 312 315 316 318 319 321 321 320 320 323 324 324 325 325 324 324 323 316 314 297 295 297 298 305 307 306 307
226 227 229 231 233 238 244 250 256 263 270 278 285 291 299 305 309 314 316 317 319 320 320 321 323 326 325 325 327 328 329 329 328 325 308 300 302 306 307 307 308 309 308
229 231 233 234 237 239 243 249 255 261 267 275 283 290 298 303 308 313 315 316 319 320 320 321 324 326 325 325 328 331 332 332 320 316 313 313 312 310 310 311 312 311 311